SBIRS GEO-6 (USA 336)

Last updated on Tue Sep 15 2026 00:03:13 GMT+0000 (Coordinated Universal Time)

1 53355U 22092A 26257.31754450 -.00000301 00000+0 00000+0 0 9990 2 53355 3.1166 319.0682 0001815 210.8411 76.6982 1.00271707 15123
UTC large
Height (km)
Speed (km/s)
/
Latitude / Longitude
Inclination (degrees)
Orbital Period (minutes)
Azimuth
Elevation
Range (km)
Doppler Factor

Next 0 passes for location: London (51.5072 / 0.1276)

No passes found over London.
SBIRS GEO-6 (USA 336)